This demonstration page uses our WeatherBlox Daily Observations layout. Learn more.

Left ArrowRight Arrow

39.01783, -85.05884

Hourly Observations for August 12, 2022

Temp ( °F °C ) Dew Point ( °F °C ) Humidity (%) Winds ( mph kmh ) Pressure ( in mb ) Visibility ( mi km ) Precip ( " mm )
12:52 am 00:52 Mostly Clear 69 20.6 66 18.9 90 90 N 8 13 30.09 1019 9 14 0.00 0.00
1:52 am 01:52 Mostly Clear 68 20 63 17.2 84 84 N 7 11 30.10 1019 10 16 0.00 0.00
2:52 am 02:52 Clear 68 20 61 16.1 78 78 NNE 8 13 30.09 1019 10 16 0.00 0.00
3:52 am 03:52 Clear 67 19.4 61 16.1 81 81 NNE 9 15 30.10 1019 10 16 0.00 0.00
4:52 am 04:52 Clear 65 18.3 60 15.6 84 84 NNE 9 15 30.10 1019 10 16 0.00 0.00
5:52 am 05:52 Mostly Clear 65 18.3 58 14.4 78 78 NE 9 15 30.11 1020 10 16 0.00 0.00
6:52 am 06:52 Mostly Sunny 64 17.8 55 12.8 73 73 NE 9 15 30.14 1021 10 16 0.00 0.00
7:52 am 07:52 Mostly Sunny 64 17.8 55 12.8 73 73 N 8 13 30.16 1021 10 16 0.00 0.00
8:52 am 08:52 Partly Cloudy 66 18.9 53 11.7 63 63 NE 9 15 30.16 1021 10 16 0.00 0.00
9:52 am 09:52 Mostly Cloudy 69 20.6 52 11.1 54 54 ENE 10 17 30.16 1022 10 16 0.00 0.00
10:52 am 10:52 Mostly Cloudy 72 22.2 51 10.6 48 48 NNE 10 17 30.17 1022 10 16 0.00 0.00
11:52 am 11:52 Mostly Cloudy 73 22.8 51 10.6 46 46 N 10 17 30.17 1022 10 16 0.00 0.00
12:52 pm 12:52 Mostly Cloudy 76 24.4 52 11.1 43 43 N 7 11 30.18 1022 10 16 0.00 0.00
1:52 pm 13:52 Partly Cloudy 77 25 50 10 39 39 N 8 13 30.16 1022 10 16 0.00 0.00
2:52 pm 14:52 Partly Cloudy 78 25.6 50 10 37 37 N 9 15 30.16 1021 10 16 0.00 0.00
3:52 pm 15:52 Mostly Cloudy 79 26.1 53 11.7 41 41 N 9 15 30.15 1021 10 16 0.00 0.00
4:52 pm 16:52 Mostly Cloudy 78 25.6 53 11.7 42 42 N 12 19 30.12 1020 10 16 0.00 0.00
5:52 pm 17:52 Cloudy 78 25.6 55 12.8 45 45 NE 9 15 30.11 1020 10 16 0.00 0.00
6:52 pm 18:52 Cloudy 75 23.9 56 13.3 51 51 E 10 17 30.11 1020 10 16 0.00 0.00
7:52 pm 19:52 Mostly Cloudy 73 22.8 57 13.9 57 57 E 7 11 30.12 1020 10 16 0.00 0.00
8:52 pm 20:52 Mostly Cloudy 71 21.7 55 12.8 57 57 E 6 9 30.12 1020 10 16 0.00 0.00
9:52 pm 21:52 Mostly Clear 70 21.1 57 13.9 63 63 Calm 30.13 1020 10 16 0.00 0.00
10:52 pm 22:52 Partly Cloudy 70 21.1 57 13.9 63 63 VRB 3 6 30.14 1021 10 16 0.00 0.00
11:52 pm 23:52 Clear 66 18.9 57 13.9 73 73 Calm 30.14 1021 10 16 0.00 0.00

Powered by AerisWeather